| time (UTC) | temp C | wind direction | speed KPH | gust KPH | rain 1hr cm | rain 24hr cm | rain mn cm | humidity % | barometer mb |
| 20260906053550 | 15 | 225 | 0.0 | 0.0 | 0.00 | 0.00 | 0.00 | 56 | 1014.7 |
| 20260906053049 | 15 | 225 | 0.0 | 0.0 | 0.00 | 0.00 | 0.00 | 57 | 1014.9 |
| 20260906052548 | 15 | 225 | 0.0 | 0.0 | 0.00 | 0.00 | 0.00 | 58 | 1014.9 |
| 20260906052047 | 15 | 225 | 0.0 | 0.0 | 0.00 | 0.00 | 0.00 | 58 | 1014.9 |
| 20260906051545 | 15 | 225 | 0.0 | 0.0 | 0.00 | 0.00 | 0.00 | 58 | 1015.0 |
| 20260906051045 | 15 | 231 | 0.0 | 0.0 | 0.00 | 0.00 | 0.00 | 59 | 1015.0 |
| 20260906050542 | 15 | 230 | 0.0 | 0.0 | 0.00 | 0.00 | 0.00 | 59 | 1014.9 |
| 20260906050041 | 15 | 238 | 0.0 | 0.0 | 0.00 | 0.00 | 0.00 | 59 | 1015.0 |
| 20260906045540 | 15 | 252 | 0.0 | 0.0 | 0.00 | 0.00 | 0.00 | 59 | 1015.0 |
| 20260906045038 | 15 | 252 | 0.0 | 0.0 | 0.00 | 0.00 | 0.00 | 60 | 1014.9 |
| 20260906044536 | 15 | 252 | 0.0 | 0.0 | 0.00 | 0.00 | 0.00 | 61 | 1015.0 |
| 20260906044037 | 15 | 252 | 0.0 | 0.0 | 0.00 | 0.00 | 0.00 | 60 | 1015.0 |
| 20260906043534 | 16 | 252 | 0.0 | 0.0 | 0.00 | 0.00 | 0.00 | 60 | 1014.9 |
| 20260906043038 | 16 | 252 | 0.0 | 0.0 | 0.00 | 0.00 | 0.00 | 60 | 1014.9 |
| 20260906042530 | 16 | 252 | 0.0 | 0.0 | 0.00 | 0.00 | 0.00 | 61 | 1015.0 |
| 20260906042030 | 16 | 252 | 0.0 | 0.0 | 0.00 | 0.00 | 0.00 | 61 | 1015.0 |
| 20260906041531 | 16 | 252 | 0.0 | 0.0 | 0.00 | 0.00 | 0.00 | 60 | 1014.9 |
| 20260906041027 | 16 | 253 | 0.0 | 0.0 | 0.00 | 0.00 | 0.00 | 62 | 1014.8 |
| 20260906040525 | 16 | 253 | 0.0 | 0.0 | 0.00 | 0.00 | 0.00 | 61 | 1014.9 |
| 20260906040033 | 16 | 254 | 0.0 | 0.0 | 0.00 | 0.00 | 0.00 | 62 | 1014.9 |
| 20260906035528 | 16 | 254 | 0.0 | 0.0 | 0.00 | 0.00 | 0.00 | 63 | 1014.8 |
| 20260906035020 | 16 | 260 | 0.0 | 0.0 | 0.00 | 0.00 | 0.00 | 64 | 1014.8 |
| 20260906034527 | 16 | 218 | 0.0 | 0.0 | 0.00 | 0.00 | 0.00 | 65 | 1014.8 |
| 20260906034018 | 16 | 218 | 0.0 | 0.0 | 0.00 | 0.00 | 0.00 | 65 | 1014.7 |
| 20260906033518 | 16 | 218 | 0.0 | 0.0 | 0.00 | 0.00 | 0.00 | 65 | 1014.7 |
| 20260906033018 | 16 | 218 | 0.0 | 0.0 | 0.00 | 0.00 | 0.00 | 65 | 1014.5 |
| 20260906032515 | 16 | 218 | 0.0 | 0.0 | 0.00 | 0.00 | 0.00 | 65 | 1014.5 |
| 20260906032017 | 17 | 218 | 0.0 | 0.0 | 0.00 | 0.00 | 0.00 | 65 | 1014.5 |
| 20260906031519 | 17 | 218 | 0.0 | 0.0 | 0.00 | 0.00 | 0.00 | 65 | 1014.4 |
| 20260906031011 | 17 | 218 | 0.0 | 0.0 | 0.00 | 0.00 | 0.00 | 64 | 1014.3 |
| 20260906030510 | 17 | 276 | 0.0 | 0.0 | 0.00 | 0.00 | 0.00 | 63 | 1014.4 |
| 20260906030008 | 18 | 276 | 0.0 | 0.0 | 0.00 | 0.00 | 0.00 | 62 | 1014.3 |
| 20260906025510 | 18 | 276 | 0.0 | 0.0 | 0.00 | 0.00 | 0.00 | 61 | 1014.3 |
| 20260906025005 | 18 | 276 | 0.0 | 0.0 | 0.00 | 0.00 | 0.00 | 61 | 1014.3 |
| 20260906024504 | 18 | 276 | 0.0 | 0.0 | 0.00 | 0.00 | 0.00 | 60 | 1014.3 |
| 20260906024002 | 19 | 276 | 0.0 | 0.0 | 0.00 | 0.00 | 0.00 | 60 | 1014.3 |
| 20260906023501 | 19 | 276 | 0.0 | 0.0 | 0.00 | 0.00 | 0.00 | 60 | 1014.3 |
| 20260906023111 | 19 | 276 | 0.0 | 0.0 | 0.00 | 0.00 | 0.00 | 59 | 1014.3 |
| 20260906022602 | 19 | 276 | 0.0 | 0.0 | 0.00 | 0.00 | 0.00 | 59 | 1014.4 |
| 20260906022057 | 20 | 276 | 0.0 | 0.0 | 0.00 | 0.00 | 0.00 | 59 | 1014.3 |
| 20260906021556 | 20 | 276 | 0.0 | 0.0 | 0.00 | 0.00 | 0.00 | 58 | 1014.3 |
| 20260906021053 | 20 | 276 | 0.0 | 0.0 | 0.00 | 0.00 | 0.00 | 58 | 1014.3 |
| 20260906020552 | 20 | 276 | 0.0 | 0.0 | 0.00 | 0.00 | 0.00 | 57 | 1014.2 |
| 20260906020057 | 20 | 277 | 0.0 | 0.0 | 0.00 | 0.00 | 0.00 | 57 | 1014.2 |
| 20260906015549 | 20 | 277 | 0.0 | 0.0 | 0.00 | 0.00 | 0.00 | 57 | 1014.3 |
| 20260906015049 | 20 | 277 | 0.0 | 0.0 | 0.00 | 0.00 | 0.00 | 57 | 1014.2 |
| 20260906014548 | 20 | 277 | 0.0 | 0.0 | 0.00 | 0.00 | 0.00 | 58 | 1014.3 |
| 20260906014046 | 20 | 277 | 0.0 | 0.0 | 0.00 | 0.00 | 0.00 | 59 | 1014.3 |
| 20260906013545 | 20 | 277 | 0.0 | 0.0 | 0.00 | 0.00 | 0.00 | 59 | 1014.3 |
| 20260906013045 | 20 | 277 | 0.0 | 0.0 | 0.00 | 0.00 | 0.00 | 59 | 1014.4 |
| 20260906012545 | 20 | 277 | 0.0 | 0.0 | 0.00 | 0.00 | 0.00 | 59 | 1014.5 |
| 20260906012045 | 20 | 277 | 0.0 | 0.0 | 0.00 | 0.00 | 0.00 | 59 | 1014.5 |
| 20260906011547 | 20 | 279 | 0.0 | 0.0 | 0.00 | 0.00 | 0.00 | 59 | 1014.4 |
| 20260906011044 | 20 | 223 | 0.0 | 0.0 | 0.00 | 0.00 | 0.00 | 60 | 1014.4 |
| 20260906010544 | 20 | 257 | 0.0 | 0.0 | 0.00 | 0.00 | 0.00 | 61 | 1014.5 |
| 20260906010044 | 19 | 213 | 0.0 | 0.0 | 0.00 | 0.00 | 0.00 | 61 | 1014.6 |
| 20260906005544 | 19 | 202 | 0.0 | 0.0 | 0.00 | 0.00 | 0.00 | 63 | 1014.6 |
| 20260906005044 | 18 | 232 | 0.0 | 0.0 | 0.00 | 0.00 | 0.00 | 62 | 1014.7 |
| 20260906004550 | 18 | 263 | 0.0 | 0.0 | 0.00 | 0.00 | 0.00 | 62 | 1014.6 |
| 20260906004044 | 18 | 158 | 0.0 | 0.0 | 0.00 | 0.00 | 0.00 | 64 | 1014.7 |
| 20260906003544 | 18 | 159 | 0.0 | 0.0 | 0.00 | 0.00 | 0.00 | 63 | 1014.8 |
| 20260906003049 | 18 | 201 | 0.0 | 0.0 | 0.00 | 0.00 | 0.00 | 63 | 1014.9 |
| 20260906002543 | 18 | 198 | 0.0 | 0.0 | 0.00 | 0.00 | 0.00 | 61 | 1014.9 |
| 20260906002044 | 19 | 179 | 0.0 | 0.0 | 0.00 | 0.00 | 0.00 | 60 | 1014.8 |
| 20260906001545 | 19 | 198 | 0.0 | 0.0 | 0.00 | 0.00 | 0.00 | 58 | 1014.8 |
| 20260906001040 | 19 | 238 | 0.0 | 0.0 | 0.00 | 0.00 | 0.00 | 58 | 1014.8 |
| 20260906000539 | 20 | 190 | 0.0 | 0.0 | 0.00 | 0.00 | 0.00 | 57 | 1014.8 |
| 20260906000038 | 20 | 250 | 0.0 | 0.0 | 0.00 | 0.00 | 0.00 | 55 | 1014.7 |
| 20260905235539 | 20 | 256 | 0.0 | 0.0 | 0.00 | 0.00 | 0.00 | 55 | 1014.8 |
| 20260905235034 | 20 | 248 | 0.0 | 0.0 | 0.00 | 0.00 | 0.00 | 54 | 1014.7 |
| 20260905234534 | 20 | 285 | 0.0 | 0.0 | 0.00 | 0.00 | 0.00 | 54 | 1014.6 |
| 20260905234032 | 20 | 279 | 0.0 | 0.0 | 0.00 | 0.00 | 0.00 | 54 | 1014.7 |
| 20260905233531 | 20 | 290 | 0.0 | 0.0 | 0.00 | 0.00 | 0.00 | 53 | 1014.6 |
| 20260905233032 | 20 | 286 | 0.0 | 0.0 | 0.00 | 0.00 | 0.00 | 53 | 1014.4 |
| 20260905232528 | 21 | 291 | 0.0 | 0.0 | 0.00 | 0.00 | 0.00 | 53 | 1014.6 |
| 20260905232029 | 21 | 285 | 0.0 | 0.0 | 0.00 | 0.00 | 0.00 | 52 | 1014.6 |
| 20260905231533 | 21 | 274 | 0.0 | 0.0 | 0.00 | 0.00 | 0.00 | 51 | 1014.6 |
| 20260905231026 | 22 | 306 | 0.0 | 0.0 | 0.00 | 0.00 | 0.00 | 49 | 1014.5 |
| 20260905230521 | 22 | 298 | 0.0 | 0.0 | 0.00 | 0.00 | 0.00 | 47 | 1014.6 |
| 20260905230020 | 23 | 288 | 0.0 | 0.0 | 0.00 | 0.00 | 0.00 | 45 | 1014.6 |
| 20260905225519 | 23 | 269 | 0.0 | 0.0 | 0.00 | 0.00 | 0.00 | 44 | 1014.5 |
| 20260905225017 | 24 | 281 | 0.0 | 0.0 | 0.00 | 0.00 | 0.00 | 44 | 1014.4 |
| 20260905224521 | 25 | 279 | 0.0 | 0.0 | 0.00 | 0.00 | 0.00 | 42 | 1014.4 |
| 20260905224023 | 25 | 263 | 0.0 | 0.0 | 0.00 | 0.00 | 0.00 | 40 | 1014.4 |
| 20260905223512 | 25 | 355 | 0.0 | 0.0 | 0.00 | 0.00 | 0.00 | 39 | 1014.4 |
| 20260905223011 | 25 | 333 | 0.0 | 0.0 | 0.00 | 0.00 | 0.00 | 38 | 1014.4 |
| 20260905222510 | 25 | 78 | 0.0 | 0.0 | 0.00 | 0.00 | 0.00 | 38 | 1014.4 |
| 20260905222008 | 25 | 96 | 0.0 | 0.0 | 0.00 | 0.00 | 0.00 | 39 | 1014.4 |
| 20260905221506 | 24 | 321 | 0.0 | 0.0 | 0.00 | 0.00 | 0.00 | 39 | 1014.5 |
| 20260905221005 | 24 | 48 | 0.0 | 0.0 | 0.00 | 0.00 | 0.00 | 41 | 1014.6 |
| 20260905220506 | 23 | 305 | 0.0 | 0.0 | 0.00 | 0.00 | 0.00 | 43 | 1014.6 |
| 20260905220002 | 23 | 329 | 0.0 | 0.0 | 0.00 | 0.00 | 0.00 | 46 | 1014.6 |
| 20260905215601 | 23 | 330 | 0.0 | 0.0 | 0.00 | 0.00 | 0.00 | 42 | 1014.6 |
| 20260905215101 | 23 | 142 | 0.0 | 0.0 | 0.00 | 0.00 | 0.00 | 40 | 1014.8 |
| 20260905214606 | 23 | 144 | 0.0 | 0.0 | 0.00 | 0.00 | 0.00 | 39 | 1014.7 |
| 20260905214057 | 22 | 223 | 0.0 | 0.0 | 0.00 | 0.00 | 0.00 | 42 | 1014.7 |
| 20260905213554 | 22 | 165 | 0.0 | 0.0 | 0.00 | 0.00 | 0.00 | 43 | 1014.8 |
| 20260905213055 | 22 | 154 | 0.0 | 0.0 | 0.00 | 0.00 | 0.00 | 44 | 1014.8 |
| 20260905212556 | 22 | 168 | 0.0 | 0.0 | 0.00 | 0.00 | 0.00 | 43 | 1014.9 |
| 20260905212050 | 22 | 185 | 0.0 | 0.0 | 0.00 | 0.00 | 0.00 | 43 | 1014.9 |
| 20260905211550 | 22 | 198 | 0.0 | 0.0 | 0.00 | 0.00 | 0.00 | 42 | 1015.0 |
| 20260905211047 | 22 | 280 | 0.0 | 0.0 | 0.00 | 0.00 | 0.00 | 43 | 1014.9 |
| 20260905210547 | 22 | 279 | 0.0 | 0.0 | 0.00 | 0.00 | 0.00 | 43 | 1014.9 |
| 20260905210053 | 22 | 122 | 0.0 | 0.0 | 0.00 | 0.00 | 0.00 | 45 | 1015.1 |
| 20260905205544 | 22 | 103 | 0.0 | 0.0 | 0.00 | 0.03 | 0.00 | 44 | 1015.1 |
| 20260905205042 | 23 | 61 | 0.0 | 0.0 | 0.00 | 0.03 | 0.00 | 43 | 1015.1 |
| 20260905204543 | 23 | 61 | 0.0 | 0.0 | 0.00 | 0.03 | 0.00 | 43 | 1015.1 |
| 20260905204039 | 23 | 34 | 0.0 | 0.0 | 0.00 | 0.03 | 0.00 | 43 | 1015.1 |
| 20260905203538 | 23 | 107 | 0.0 | 0.0 | 0.00 | 0.03 | 0.00 | 44 | 1015.2 |
| 20260905203038 | 23 | 52 | 0.0 | 0.0 | 0.00 | 0.03 | 0.00 | 44 | 1015.2 |
| 20260905202535 | 23 | 154 | 0.0 | 0.0 | 0.00 | 0.03 | 0.00 | 45 | 1015.1 |
| 20260905202033 | 23 | 32 | 0.0 | 0.0 | 0.00 | 0.03 | 0.00 | 46 | 1015.2 |
| 20260905201531 | 22 | 70 | 0.0 | 0.0 | 0.00 | 0.03 | 0.00 | 47 | 1015.2 |
| 20260905201030 | 22 | 55 | 0.0 | 0.0 | 0.00 | 0.03 | 0.00 | 48 | 1015.2 |
| 20260905200533 | 22 | 17 | 0.0 | 0.0 | 0.00 | 0.03 | 0.00 | 49 | 1015.2 |
| 20260905200029 | 22 | 29 | 0.0 | 0.0 | 0.00 | 0.03 | 0.00 | 50 | 1015.4 |
| 20260905195526 | 21 | 193 | 0.0 | 0.0 | 0.00 | 0.03 | 0.00 | 52 | 1015.3 |
| 20260905195024 | 21 | 70 | 0.0 | 0.0 | 0.00 | 0.03 | 0.00 | 54 | 1015.4 |
| 20260905194523 | 20 | 325 | 0.0 | 0.0 | 0.00 | 0.03 | 0.00 | 57 | 1015.6 |
| 20260905194021 | 20 | 29 | 0.0 | 0.0 | 0.00 | 0.03 | 0.00 | 57 | 1015.5 |
| 20260905193520 | 20 | 350 | 0.0 | 0.0 | 0.00 | 0.03 | 0.00 | 60 | 1015.5 |
| 20260905193018 | 20 | 344 | 0.0 | 0.0 | 0.00 | 0.03 | 0.00 | 60 | 1015.6 |
| 20260905192520 | 20 | 325 | 0.0 | 0.0 | 0.00 | 0.03 | 0.00 | 62 | 1015.7 |
| 20260905192015 | 19 | 302 | 0.0 | 0.0 | 0.00 | 0.03 | 0.00 | 62 | 1015.8 |
| 20260905191514 | 19 | 286 | 0.0 | 0.0 | 0.00 | 0.03 | 0.00 | 62 | 1015.8 |
| 20260905191012 | 18 | 273 | 0.0 | 0.0 | 0.00 | 0.03 | 0.00 | 64 | 1015.9 |
| 20260905190513 | 18 | 273 | 0.0 | 0.0 | 0.00 | 0.03 | 0.00 | 64 | 1015.9 |
| 20260905190023 | 18 | 247 | 0.0 | 0.0 | 0.00 | 0.03 | 0.00 | 65 | 1016.1 |
| 20260905185508 | 18 | 247 | 0.0 | 0.0 | 0.00 | 0.03 | 0.00 | 65 | 1016.1 |
| 20260905185010 | 18 | 246 | 0.0 | 0.0 | 0.00 | 0.03 | 0.00 | 65 | 1016.2 |
| 20260905184509 | 17 | 237 | 0.0 | 0.0 | 0.00 | 0.03 | 0.00 | 66 | 1016.2 |
| 20260905184007 | 17 | 236 | 0.0 | 0.0 | 0.00 | 0.03 | 0.00 | 65 | 1016.3 |
| 20260905183503 | 17 | 277 | 0.0 | 0.0 | 0.00 | 0.03 | 0.00 | 66 | 1016.4 |
| 20260905183002 | 17 | 277 | 0.0 | 0.0 | 0.00 | 0.03 | 0.00 | 66 | 1016.4 |
| 20260905182600 | 17 | 263 | 0.0 | 0.0 | 0.00 | 0.03 | 0.00 | 66 | 1016.4 |
| 20260905182059 | 16 | 263 | 0.0 | 0.0 | 0.00 | 0.03 | 0.00 | 66 | 1016.4 |
| 20260905181557 | 16 | 263 | 0.0 | 0.0 | 0.00 | 0.03 | 0.00 | 66 | 1016.4 |
| 20260905181055 | 16 | 263 | 0.0 | 0.0 | 0.00 | 0.03 | 0.00 | 65 | 1016.5 |
| 20260905180554 | 16 | 263 | 0.0 | 0.0 | 0.00 | 0.03 | 0.00 | 63 | 1016.5 |
| 20260905180111 | 16 | 264 | 0.0 | 0.0 | 0.00 | 0.03 | 0.00 | 59 | 1016.6 |
| 20260905175552 | 15 | 264 | 0.0 | 0.0 | 0.00 | 0.03 | 0.00 | 54 | 1016.7 |
| 20260905175052 | 15 | 263 | 0.0 | 0.0 | 0.00 | 0.03 | 0.00 | 51 | 1016.6 |
| 20260905174548 | 15 | 253 | 0.0 | 0.0 | 0.00 | 0.03 | 0.00 | 50 | 1016.7 |
| 20260905174047 | 15 | 275 | 0.0 | 0.0 | 0.00 | 0.03 | 0.00 | 42 | 1016.7 |
| 20260905173545 | 15 | 268 | 0.0 | 0.0 | 0.00 | 0.03 | 0.00 | 31 | 1016.7 |
| 20260905173106 | 15 | 278 | 0.0 | 0.0 | 0.00 | 0.03 | 0.00 | 29 | 1016.7 |
| 20260905172542 | 15 | 278 | 0.0 | 0.0 | 0.00 | 0.03 | 0.00 | 31 | 1016.8 |
| 20260905172041 | 14 | 278 | 0.0 | 0.0 | 0.00 | 0.03 | 0.00 | 32 | 1016.9 |
| 20260905171550 | 14 | 278 | 0.0 | 0.0 | 0.00 | 0.03 | 0.00 | 32 | 1016.8 |
| 20260905171037 | 14 | 276 | 0.0 | 0.0 | 0.00 | 0.03 | 0.00 | 24 | 1016.7 |
| 20260905170536 | 14 | 276 | 0.0 | 0.0 | 0.00 | 0.03 | 0.00 | 24 | 1016.7 |
| 20260905170035 | 14 | 276 | 0.0 | 0.0 | 0.00 | 0.03 | 0.00 | 28 | 1016.8 |
| 20260905165535 | 14 | 275 | 0.0 | 0.0 | 0.00 | 0.03 | 0.00 | 18 | 1016.8 |
| 20260905165032 | 14 | 268 | 0.0 | 0.0 | 0.00 | 0.03 | 0.00 | 14 | 1016.7 |
| 20260905164531 | 13 | 267 | 0.0 | 0.0 | 0.00 | 0.03 | 0.00 | 10 | 1016.7 |
| 20260905164029 | 13 | 263 | 0.0 | 0.0 | 0.00 | 0.03 | 0.00 | 8 | 1016.7 |
| 20260905163528 | 13 | 263 | 0.0 | 0.0 | 0.00 | 0.03 | 0.00 | 8 | 1016.7 |
| 20260905163026 | 13 | 252 | 0.0 | 0.0 | 0.00 | 0.03 | 0.00 | 6 | 1016.6 |
| 20260905162525 | 13 | 252 | 0.0 | 0.0 | 0.00 | 0.03 | 0.00 | 4 | 1016.6 |
| 20260905162023 | 13 | 252 | 0.0 | 0.0 | 0.00 | 0.03 | 0.00 | 1 | 1016.6 |
| 20260905161525 | 13 | 252 | 0.0 | 0.0 | 0.00 | 0.03 | 0.00 | 1 | 1016.6 |
| 20260905161023 | 13 | 252 | 0.0 | 0.0 | 0.00 | 0.03 | 0.00 | 1 | 1016.7 |
| 20260905160519 | 13 | 360 | 0.0 | 0.0 | 0.00 | 0.03 | 0.00 | 1 | 1016.6 |
| 20260905160027 | 12 | 252 | 0.0 | 0.0 | 0.00 | 0.03 | 0.00 | 1 | 1016.6 |
| 20260905155516 | 12 | 252 | 0.0 | 0.0 | 0.00 | 0.03 | 0.00 | 1 | 1016.6 |
| 20260905155016 | 12 | 251 | 0.0 | 0.0 | 0.00 | 0.03 | 0.00 | 1 | 1016.6 |
| 20260905154513 | 12 | 252 | 0.0 | 0.0 | 0.00 | 0.03 | 0.00 | 1 | 1016.5 |
| 20260905154014 | 12 | 252 | 0.0 | 0.0 | 0.00 | 0.03 | 0.00 | 1 | 1016.6 |
| 20260905153510 | 12 | 360 | 0.0 | 0.0 | 0.00 | 0.03 | 0.00 | 1 | 1016.6 |
| 20260905153008 | 12 | 360 | 0.0 | 0.0 | 0.00 | 0.03 | 0.00 | 1 | 1016.5 |
| 20260905152507 | 12 | 360 | 0.0 | 0.0 | 0.00 | 0.03 | 0.00 | 1 | 1016.6 |
| 20260905152006 | 12 | 256 | 0.0 | 0.0 | 0.00 | 0.03 | 0.00 | 1 | 1016.7 |
| 20260905151504 | 12 | 256 | 0.0 | 0.0 | 0.00 | 0.03 | 0.00 | 1 | 1016.6 |
| 20260905151002 | 12 | 360 | 0.0 | 0.0 | 0.00 | 0.03 | 0.00 | 1 | 1016.5 |
| 20260905150501 | 11 | 360 | 0.0 | 0.0 | 0.00 | 0.03 | 0.00 | 1 | 1016.6 |
| 20260905150100 | 11 | 256 | 0.0 | 0.0 | 0.00 | 0.03 | 0.00 | 1 | 1016.5 |
| 20260905145559 | 11 | 256 | 0.0 | 0.0 | 0.00 | 0.03 | 0.00 | 1 | 1016.5 |
| 20260905145057 | 11 | 255 | 0.0 | 0.0 | 0.00 | 0.03 | 0.00 | 1 | 1016.5 |
| 20260905144557 | 11 | 256 | 0.0 | 0.0 | 0.00 | 0.03 | 0.00 | 1 | 1016.5 |
| 20260905144054 | 11 | 256 | 0.0 | 0.0 | 0.00 | 0.03 | 0.00 | 1 | 1016.5 |
| 20260905143553 | 11 | 255 | 0.0 | 0.0 | 0.00 | 0.03 | 0.00 | 1 | 1016.5 |
| 20260905143051 | 11 | 256 | 0.0 | 0.0 | 0.00 | 0.03 | 0.00 | 1 | 1016.6 |
| 20260905142553 | 11 | 256 | 0.0 | 0.0 | 0.00 | 0.03 | 0.00 | 1 | 1016.5 |
| 20260905142050 | 11 | 255 | 0.0 | 0.0 | 0.00 | 0.03 | 0.00 | 1 | 1016.5 |
| 20260905141547 | 11 | 256 | 0.0 | 0.0 | 0.00 | 0.03 | 0.00 | 1 | 1016.5 |
| 20260905141045 | 11 | 256 | 0.0 | 0.0 | 0.00 | 0.03 | 0.00 | 1 | 1016.5 |
| 20260905140544 | 11 | 255 | 0.0 | 0.0 | 0.00 | 0.03 | 0.00 | 1 | 1016.4 |
| 20260905140042 | 11 | 259 | 0.0 | 0.0 | 0.00 | 0.03 | 0.00 | 1 | 1016.3 |
| 20260905135545 | 11 | 259 | 0.0 | 0.0 | 0.00 | 0.03 | 0.00 | 1 | 1016.3 |
| 20260905135039 | 11 | 360 | 0.0 | 0.0 | 0.00 | 0.03 | 0.00 | 1 | 1016.1 |
| 20260905134538 | 11 | 259 | 0.0 | 0.0 | 0.00 | 0.03 | 0.00 | 1 | 1016.0 |
| 20260905134037 | 11 | 259 | 0.0 | 0.0 | 0.00 | 0.03 | 0.00 | 1 | 1016.0 |
| 20260905133534 | 11 | 259 | 0.0 | 0.0 | 0.00 | 0.03 | 0.00 | 1 | 1016.1 |
| 20260905133034 | 11 | 259 | 0.0 | 0.0 | 0.00 | 0.03 | 0.00 | 1 | 1016.1 |
| 20260905132532 | 12 | 360 | 0.0 | 0.0 | 0.00 | 0.03 | 0.00 | 1 | 1016.0 |
| 20260905132031 | 12 | 360 | 0.0 | 0.0 | 0.00 | 0.03 | 0.00 | 1 | 1016.0 |
| 20260905131529 | 12 | 259 | 0.0 | 0.0 | 0.00 | 0.03 | 0.00 | 1 | 1016.0 |
| 20260905131027 | 12 | 259 | 0.0 | 0.0 | 0.00 | 0.03 | 0.00 | 1 | 1016.0 |
| 20260905130529 | 12 | 259 | 0.0 | 0.0 | 0.00 | 0.03 | 0.00 | 1 | 1016.0 |
| 20260905130025 | 12 | 259 | 0.0 | 0.0 | 0.00 | 0.03 | 0.00 | 1 | 1015.9 |
| 20260905125523 | 12 | 259 | 0.0 | 0.0 | 0.00 | 0.05 | 0.00 | 1 | 1015.9 |
| 20260905125022 | 12 | 259 | 0.0 | 0.0 | 0.00 | 0.05 | 0.00 | 1 | 1015.9 |
| 20260905124520 | 12 | 259 | 0.0 | 0.0 | 0.00 | 0.05 | 0.00 | 1 | 1016.0 |
| 20260905124018 | 12 | 259 | 0.0 | 0.0 | 0.00 | 0.05 | 0.00 | 1 | 1016.0 |
| 20260905123517 | 12 | 360 | 0.0 | 0.0 | 0.00 | 0.05 | 0.00 | 1 | 1015.9 |
| 20260905123016 | 12 | 259 | 0.0 | 0.0 | 0.00 | 0.05 | 0.00 | 1 | 1016.0 |
| 20260905122516 | 12 | 360 | 0.0 | 0.0 | 0.00 | 0.05 | 0.00 | 1 | 1016.0 |
| 20260905122015 | 12 | 259 | 0.0 | 0.0 | 0.00 | 0.05 | 0.00 | 1 | 1015.9 |
| 20260905121511 | 12 | 259 | 0.0 | 0.0 | 0.00 | 0.05 | 0.00 | 1 | 1016.0 |
| 20260905121012 | 12 | 259 | 0.0 | 0.0 | 0.00 | 0.05 | 0.00 | 1 | 1015.7 |
| 20260905120508 | 12 | 259 | 0.0 | 0.0 | 0.00 | 0.05 | 0.00 | 1 | 1015.8 |
| 20260905120019 | 12 | 259 | 0.0 | 0.0 | 0.00 | 0.08 | 0.00 | 1 | 1015.9 |
| 20260905115506 | 12 | 259 | 0.0 | 0.0 | 0.00 | 0.08 | 0.00 | 1 | 1015.8 |
| 20260905115004 | 12 | 360 | 0.0 | 0.0 | 0.00 | 0.08 | 0.00 | 1 | 1015.8 |
| 20260905114503 | 12 | 259 | 0.0 | 0.0 | 0.00 | 0.08 | 0.00 | 1 | 1015.8 |
| 20260905114001 | 12 | 259 | 0.0 | 0.0 | 0.00 | 0.08 | 0.00 | 1 | 1015.8 |
| 20260905113600 | 12 | 259 | 0.0 | 0.0 | 0.00 | 0.08 | 0.00 | 1 | 1015.8 |
| 20260905113100 | 12 | 259 | 0.0 | 0.0 | 0.00 | 0.08 | 0.00 | 2 | 1015.8 |
| 20260905112557 | 12 | 259 | 0.0 | 0.0 | 0.00 | 0.08 | 0.00 | 2 | 1015.7 |
| 20260905112055 | 12 | 360 | 0.0 | 0.0 | 0.00 | 0.08 | 0.00 | 3 | 1015.6 |
| 20260905111646 | 12 | 259 | 0.0 | 0.0 | 0.00 | 0.08 | 0.00 | 3 | 1015.7 |
| 20260905111052 | 12 | 259 | 0.0 | 0.0 | 0.00 | 0.08 | 0.00 | 3 | 1015.7 |
| 20260905110551 | 12 | 259 | 0.0 | 0.0 | 0.00 | 0.08 | 0.00 | 4 | 1015.6 |
| 20260905110049 | 12 | 259 | 0.0 | 0.0 | 0.00 | 0.08 | 0.00 | 6 | 1015.6 |
| 20260905105548 | 12 | 259 | 0.0 | 0.0 | 0.00 | 0.08 | 0.00 | 6 | 1015.5 |
| 20260905105046 | 13 | 360 | 0.0 | 0.0 | 0.00 | 0.08 | 0.00 | 8 | 1015.5 |
| 20260905104545 | 13 | 259 | 0.0 | 0.0 | 0.00 | 0.08 | 0.00 | 8 | 1015.6 |
| 20260905104043 | 13 | 259 | 0.0 | 0.0 | 0.00 | 0.08 | 0.00 | 8 | 1015.7 |
| 20260905103544 | 13 | 259 | 0.0 | 0.0 | 0.00 | 0.08 | 0.00 | 8 | 1015.7 |
| 20260905103041 | 13 | 259 | 0.0 | 0.0 | 0.00 | 0.08 | 0.00 | 7 | 1015.5 |
| 20260905102542 | 13 | 259 | 0.0 | 0.0 | 0.00 | 0.08 | 0.00 | 7 | 1015.5 |
| 20260905102038 | 13 | 259 | 0.0 | 0.0 | 0.00 | 0.08 | 0.00 | 6 | 1015.5 |
| 20260905101537 | 13 | 259 | 0.0 | 0.0 | 0.00 | 0.08 | 0.00 | 7 | 1015.5 |
| 20260905101034 | 13 | 259 | 0.0 | 0.0 | 0.00 | 0.08 | 0.00 | 7 | 1015.6 |
| 20260905100533 | 13 | 259 | 0.0 | 0.0 | 0.00 | 0.08 | 0.00 | 7 | 1015.6 |
| 20260905100031 | 13 | 259 | 0.0 | 0.0 | 0.00 | 0.08 | 0.00 | 7 | 1015.6 |
| 20260905095530 | 13 | 259 | 0.0 | 0.0 | 0.00 | 0.08 | 0.00 | 7 | 1015.6 |
| 20260905095032 | 13 | 259 | 0.0 | 0.0 | 0.00 | 0.08 | 0.00 | 7 | 1015.6 |
| 20260905094528 | 13 | 259 | 0.0 | 0.0 | 0.00 | 0.08 | 0.00 | 7 | 1015.7 |
| 20260905094026 | 13 | 259 | 0.0 | 0.0 | 0.00 | 0.08 | 0.00 | 8 | 1015.7 |
| 20260905093525 | 13 | 259 | 0.0 | 0.0 | 0.00 | 0.08 | 0.00 | 8 | 1015.8 |
| 20260905093024 | 13 | 259 | 0.0 | 0.0 | 0.00 | 0.08 | 0.00 | 8 | 1015.7 |
| 20260905092526 | 13 | 257 | 0.0 | 0.0 | 0.00 | 0.08 | 0.00 | 8 | 1015.6 |
| 20260905092020 | 13 | 265 | 0.0 | 0.0 | 0.00 | 0.08 | 0.00 | 7 | 1015.6 |
| 20260905091520 | 13 | 265 | 0.0 | 0.0 | 0.00 | 0.08 | 0.00 | 7 | 1015.5 |
| 20260905091018 | 13 | 265 | 0.0 | 0.0 | 0.00 | 0.08 | 0.00 | 6 | 1015.5 |
| 20260905090515 | 13 | 265 | 0.0 | 0.0 | 0.00 | 0.08 | 0.00 | 7 | 1015.6 |
| 20260905090016 | 13 | 256 | 0.0 | 0.0 | 0.00 | 0.08 | 0.00 | 8 | 1015.5 |
| 20260905085513 | 13 | 234 | 0.0 | 0.0 | 0.00 | 0.08 | 0.00 | 9 | 1015.5 |
| 20260905085013 | 13 | 234 | 0.0 | 0.0 | 0.00 | 0.08 | 0.00 | 10 | 1015.5 |
| 20260905084511 | 13 | 233 | 0.0 | 0.0 | 0.00 | 0.08 | 0.00 | 12 | 1015.4 |
| 20260905084013 | 13 | 230 | 0.0 | 0.0 | 0.00 | 0.08 | 0.00 | 12 | 1015.5 |
| 20260905083513 | 13 | 257 | 0.0 | 0.0 | 0.00 | 0.08 | 0.00 | 14 | 1015.6 |
| 20260905083010 | 13 | 257 | 0.0 | 0.0 | 0.00 | 0.08 | 0.00 | 16 | 1015.5 |
| 20260905082509 | 13 | 246 | 0.0 | 0.0 | 0.00 | 0.08 | 0.00 | 16 | 1015.5 |
| 20260905082009 | 13 | 239 | 0.0 | 0.0 | 0.00 | 0.08 | 0.00 | 17 | 1015.4 |
| 20260905081508 | 13 | 243 | 0.0 | 0.0 | 0.00 | 0.08 | 0.00 | 18 | 1015.3 |
| 20260905081007 | 13 | 237 | 0.0 | 0.0 | 0.00 | 0.08 | 0.00 | 18 | 1015.4 |
| 20260905080510 | 13 | 237 | 0.0 | 0.0 | 0.00 | 0.08 | 0.00 | 18 | 1015.3 |
| 20260905080006 | 13 | 237 | 0.0 | 0.0 | 0.00 | 0.08 | 0.00 | 17 | 1015.3 |
| 20260905075506 | 13 | 237 | 0.0 | 0.0 | 0.00 | 0.08 | 0.00 | 19 | 1015.3 |
| 20260905075008 | 13 | 237 | 0.0 | 0.0 | 0.00 | 0.08 | 0.00 | 18 | 1015.2 |
| 20260905074506 | 13 | 237 | 0.0 | 0.0 | 0.00 | 0.08 | 0.00 | 19 | 1015.2 |
| 20260905074004 | 13 | 237 | 0.0 | 0.0 | 0.00 | 0.08 | 0.00 | 21 | 1015.0 |
| 20260905073504 | 13 | 237 | 0.0 | 0.0 | 0.00 | 0.08 | 0.00 | 24 | 1015.1 |
| 20260905073002 | 13 | 237 | 0.0 | 0.0 | 0.00 | 0.08 | 0.00 | 26 | 1015.0 |
| 20260905072502 | 13 | 237 | 0.0 | 0.0 | 0.00 | 0.08 | 0.00 | 26 | 1015.0 |
| 20260905072001 | 13 | 237 | 0.0 | 0.0 | 0.00 | 0.08 | 0.00 | 28 | 1014.9 |
| 20260905071501 | 13 | 237 | 0.0 | 0.0 | 0.00 | 0.08 | 0.00 | 29 | 1014.9 |
| 20260905071100 | 13 | 237 | 0.0 | 0.0 | 0.00 | 0.08 | 0.00 | 29 | 1014.8 |
| 20260905070602 | 13 | 237 | 0.0 | 0.0 | 0.00 | 0.08 | 0.00 | 29 | 1014.8 |
| 20260905065556 | 14 | 237 | 0.0 | 0.0 | 0.00 | 0.08 | 0.08 | 31 | 1014.7 |
| 20260905065055 | 14 | 237 | 0.0 | 0.0 | 0.00 | 0.08 | 0.08 | 31 | 1014.7 |
| 20260905064611 | 14 | 237 | 0.0 | 0.0 | 0.00 | 0.08 | 0.08 | 32 | 1014.5 |
| 20260905064052 | 14 | 258 | 0.0 | 0.0 | 0.00 | 0.08 | 0.08 | 34 | 1014.6 |
| 20260905063550 | 14 | 258 | 0.0 | 0.0 | 0.00 | 0.08 | 0.08 | 34 | 1014.6 |
| 20260905063050 | 14 | 258 | 0.0 | 0.0 | 0.00 | 0.08 | 0.08 | 36 | 1014.6 |
| 20260905062548 | 14 | 258 | 0.0 | 0.0 | 0.00 | 0.08 | 0.08 | 37 | 1014.5 |
| 20260905062047 | 14 | 258 | 0.0 | 0.0 | 0.00 | 0.08 | 0.08 | 39 | 1014.6 |
| 20260905061545 | 14 | 258 | 0.0 | 0.0 | 0.00 | 0.08 | 0.08 | 43 | 1014.7 |
| 20260905061045 | 14 | 258 | 0.0 | 0.0 | 0.00 | 0.08 | 0.08 | 45 | 1014.6 |
| 20260905060542 | 14 | 258 | 0.0 | 0.0 | 0.00 | 0.08 | 0.08 | 47 | 1014.6 |
| 20260905060042 | 14 | 258 | 0.0 | 0.0 | 0.00 | 0.08 | 0.08 | 47 | 1014.6 |
| 20260905055539 | 14 | 258 | 0.0 | 0.0 | 0.00 | 0.08 | 0.08 | 48 | 1014.6 |
| 20260905055038 | 14 | 258 | 0.0 | 0.0 | 0.00 | 0.08 | 0.08 | 48 | 1014.7 |
| 20260905054546 | 14 | 258 | 0.0 | 0.0 | 0.00 | 0.08 | 0.08 | 47 | 1014.6 |
| 20260905054037 | 14 | 258 | 0.0 | 0.0 | 0.00 | 0.08 | 0.08 | 48 | 1014.6 |